This demonstration page uses our WeatherBlox Daily Observations layout. Learn more.

Left ArrowRight Arrow

39.01783, -85.05884

Hourly Observations for October 1, 2018

Temp ( °F °C ) Dew Point ( °F °C ) Humidity (%) Winds ( mph kmh ) Pressure ( in mb ) Visibility ( mi km ) Precip ( " mm )
12:52 am 00:52 Clear 63 17.2 58 14.4 84 84 N N/A 30.20 1023 10 16 N/A
1:52 am 01:52 Clear 60 15.6 58 14.4 93 93 N N/A 30.19 1023 10 16 N/A
2:52 am 02:52 Clear 61 16.1 59 15 93 93 N N/A 30.19 1023 10 16 N/A
3:52 am 03:52 Clear 59 15 57 13.9 93 93 N N/A 30.19 1023 10 16 N/A
4:52 am 04:52 Clear 57 13.9 57 13.9 100 100 S 3 6 30.20 1023 10 16 N/A
5:52 am 05:52 Clear 60 15.6 59 15 96 96 S 3 6 30.21 1023 10 16 N/A
6:52 am 06:52 Clear 62 16.7 60 15.6 93 93 N N/A 30.23 1024 10 16 N/A
7:52 am 07:52 Partly Cloudy with Mist and Fog 59 15 59 15 100 100 N N/A 30.24 1024 6 10 N/A
8:52 am 08:52 Sunny 64 17.8 63 17.2 96 96 S 5 7 30.25 1025 9 14 N/A
9:52 am 09:52 Sunny 70 21.1 65 18.3 84 84 S 6 9 30.26 1025 10 16 N/A
10:52 am 10:52 Partly Cloudy 75 23.9 65 18.3 71 71 SSW 8 13 30.25 1025 10 16 N/A
11:52 am 11:52 Partly Cloudy 78 25.6 66 18.9 67 67 SW 5 7 30.25 1024 10 16 N/A
12:52 pm 12:52 Mostly Sunny 80 26.7 66 18.9 62 62 SW 6 9 30.24 1024 10 16 N/A
1:52 pm 13:52 Partly Cloudy 82 27.8 67 19.4 60 60 S 9 15 30.22 1023 10 16 N/A
2:52 pm 14:52 Mostly Cloudy 81 27.2 66 18.9 61 61 N N/A 30.19 1022 10 16 N/A
3:52 pm 15:52 Mostly Cloudy 83 28.3 68 20 61 61 SSW 9 15 30.16 1022 10 16 N/A
4:52 pm 16:52 Mostly Cloudy 83 28.3 67 19.4 59 59 SSW 10 17 30.15 1021 10 16 N/A
5:52 pm 17:52 Mostly Cloudy 82 27.8 66 18.9 58 58 SSW 9 15 30.14 1021 10 16 N/A
6:52 pm 18:52 Cloudy 79 26.1 68 20 69 69 S 5 7 30.14 1021 10 16 N/A
7:38 pm 19:38 Mostly Cloudy with Thunderstorms 76 24.4 68 20 77 77 S 3 6 30.12 1020 10 16 N/A
7:52 pm 19:52 Cloudy with Thunderstorms 75 23.9 69 20.6 82 82 S 5 7 30.14 1021 10 16 N/A
8:11 pm 20:11 Cloudy with Heavy Rain 71 21.7 68 20 90 90 S 13 20 30.15 1021 3 5 0.03 0.76
8:20 pm 20:20 Cloudy with Light Rain 71 21.7 69 20.6 94 94 S 7 11 30.12 1020 9 14 0.07 1.78
8:52 pm 20:52 Cloudy 70 21.1 70 21.1 100 100 S 5 7 30.14 1021 10 16 0.07 1.78
9:52 pm 21:52 Mostly Cloudy 70 21.1 70 21.1 100 100 S 6 9 30.13 1020 9 14 N/A
10:52 pm 22:52 Cloudy 72 22.2 70 21.1 94 94 SSW 9 15 30.12 1020 10 16 N/A
11:52 pm 23:52 Mostly Cloudy 70 21.1 69 20.6 97 97 S 8 13 30.13 1020 10 16 N/A

Powered by AerisWeather